STARLINK-1806 (47549 NORAD) Tracking and Keplerian Element Data
This shows tracking and keplerian element data for the satellite.
Feedback or suggestion? Click here.
Element | Value |
Catalog | 47549 |
Name | STARLINK-1806 |
Epoch Orbit | 182 |
Epoch Day | 99.91667824 |
Epoch Year | 2021 |
RAAN | 167.3156 |
Inclination | 53.0522 |
Eccentricity | 0.0003755 |
Argument of Perigee | 14.199 |
Mean Anonmoly | 137.4572 |
Mean Motion | 15.62660934 |
Decay Rate | 0.00019104 |
L1 | 1 47549U 21009B 21099.91667824 .00019104 00000-0 21472-3 0 9999 |
L2 | 2 47549 53.0522 167.3156 0003755 14.1990 137.4572 15.62660934 1823 |
Live tracking and technical data element details for STARLINK-1806 (NORAD 47549). STARLINK-1806 can be tracked NOW for your location showing map with azimuth and elevation plus other details from your city location.
Track the satellite on the map from your city or location and see movement details for azimuth, elevation, latitude, longitude, range, height, and movement on the map or in text.
IsCatalogInMostPopularTable: catalog: 47549, numindb: 14
Update: records affected: 1
GetName: 47549 STARLINK-1806
Hit Count: updated at: Sat, 10 Apr 2021 18:15:19 GMT